Location: Cheching
(60.0667°N, 164.2167°W)
Time: 20:03:13
(UTC+00:00)

DX 1 - Pass Details

Date: 02 February 2021
Orbit: 618 x 631 km, 98.5° (Epoch: 26 February)

Event Time Altitude Azimuth Distance (km) Brightness Sun altitude
Rises 13:58:02 0° 91° (E) 2,910 ? -37.2°
Reaches altitude 10° 14:01:28 10° 62° (ENE) 2,004 ? -36.8°
Maximum altitude 14:03:12 12° 39° (NE) 1,855 ? -36.7°
Drops below altitude 10° 14:04:56 10° 15° (NNE) 2,005 ? -36.5°
Enters shadow 14:06:03 - 3° (N) 2,231 ? -36.4°
